| time (UTC) | temp F | wind direction | speed knots | gust knots | rain 1hr in | rain 24hr in | rain mn in | humidity % | barometer mb |
| 20260510080043 | 55 | 159 | 7.8 | 13.0 | 0.00 | 0.00 | 0.00 | 69 | 1012.8 |
| 20260510074541 | 55 | 188 | 7.8 | 13.9 | 0.00 | 0.00 | 0.00 | 67 | 1012.8 |
| 20260510073037 | 56 | 221 | 3.5 | 11.3 | 0.00 | 0.00 | 0.00 | 67 | 1012.9 |
| 20260510071534 | 55 | 201 | 6.1 | 9.6 | 0.00 | 0.00 | 0.00 | 67 | 1013.0 |
| 20260510070034 | 54 | 181 | 5.2 | 11.3 | 0.00 | 0.00 | 0.00 | 70 | 1013.3 |
| 20260510064526 | 53 | 199 | 5.2 | 8.7 | 0.00 | 0.00 | 0.00 | 66 | 1013.4 |
| 20260510063023 | 53 | 212 | 4.3 | 8.7 | 0.00 | 0.00 | 0.00 | 75 | 1013.6 |
| 20260510061525 | 51 | 216 | 3.5 | 8.7 | 0.00 | 0.00 | 0.00 | 81 | 1013.7 |
| 20260510060015 | 50 | 134 | 4.3 | 7.8 | 0.00 | 0.00 | 0.00 | 81 | 1013.9 |
| 20260510054513 | 49 | 168 | 3.5 | 7.8 | 0.00 | 0.00 | 0.00 | 81 | 1014.0 |
| 20260510053009 | 48 | 148 | 0.9 | 5.2 | 0.00 | 0.00 | 0.00 | 82 | 1014.2 |
| 20260510051516 | 47 | 123 | 1.7 | 5.2 | 0.00 | 0.00 | 0.00 | 82 | 1014.3 |
| 20260510050004 | 46 | 113 | 1.7 | 4.3 | 0.00 | 0.00 | 0.00 | 84 | 1014.5 |
| 20260510044500 | 45 | 213 | 0.9 | 4.3 | 0.00 | 0.00 | 0.00 | 86 | 1014.6 |
| 20260510043058 | 45 | 157 | 0.9 | 3.5 | 0.00 | 0.00 | 0.00 | 86 | 1014.8 |
| 20260510041629 | 44 | 122 | 0.0 | 2.6 | 0.00 | 0.00 | 0.00 | 87 | 1015.0 |
| 20260510040053 | 42 | 145 | 1.7 | 3.5 | 0.00 | 0.00 | 0.00 | 90 | 1015.1 |
| 20260510034556 | 41 | 132 | 0.0 | 1.7 | 0.00 | 0.00 | 0.00 | 90 | 1015.2 |
| 20260510033051 | 41 | 129 | 0.0 | 1.7 | 0.00 | 0.00 | 0.00 | 90 | 1015.5 |
| 20260510031552 | 41 | 173 | 0.0 | 1.7 | 0.00 | 0.00 | 0.00 | 90 | 1015.7 |
| 20260510030043 | 41 | 163 | 0.0 | 1.7 | 0.00 | 0.00 | 0.00 | 90 | 1015.8 |
| 20260510024555 | 39 | 150 | 0.0 | 1.7 | 0.00 | 0.00 | 0.00 | 91 | 1016.1 |
| 20260510023038 | 39 | 206 | 0.0 | 0.9 | 0.00 | 0.00 | 0.00 | 90 | 1016.3 |
| 20260510021538 | 39 | 206 | 0.0 | 0.9 | 0.00 | 0.00 | 0.00 | 90 | 1016.4 |
| 20260510020037 | 39 | 216 | 0.0 | 1.7 | 0.00 | 0.00 | 0.00 | 89 | 1016.5 |
| 20260510014536 | 39 | 223 | 0.0 | 0.0 | 0.00 | 0.00 | 0.00 | 90 | 1016.5 |
| 20260510013032 | 39 | 223 | 0.0 | 0.0 | 0.00 | 0.00 | 0.00 | 90 | 1016.7 |
| 20260510011531 | 39 | 223 | 0.0 | 0.0 | 0.00 | 0.00 | 0.00 | 90 | 1016.9 |
| 20260510010029 | 39 | 223 | 0.0 | 0.0 | 0.00 | 0.00 | 0.00 | 90 | 1017.2 |
| 20260510004528 | 39 | 223 | 0.0 | 0.0 | 0.00 | 0.00 | 0.00 | 89 | 1017.4 |
| 20260510003028 | 39 | 223 | 0.0 | 0.0 | 0.00 | 0.00 | 0.00 | 89 | 1017.6 |
| 20260510001524 | 39 | 223 | 0.0 | 0.9 | 0.00 | 0.00 | 0.00 | 88 | 1017.8 |
| 20260510000026 | 39 | 223 | 0.0 | 0.0 | 0.00 | 0.00 | 0.00 | 88 | 1017.9 |
| 20260509234522 | 39 | 229 | 0.0 | 0.9 | 0.00 | 0.00 | 0.00 | 88 | 1018.1 |
| 20260509233020 | 39 | 229 | 0.0 | 0.0 | 0.00 | 0.00 | 0.00 | 87 | 1018.1 |
| 20260509231519 | 39 | 229 | 0.0 | 0.0 | 0.00 | 0.00 | 0.00 | 87 | 1018.2 |
| 20260509230016 | 39 | 229 | 0.0 | 0.0 | 0.00 | 0.00 | 0.00 | 85 | 1018.4 |
| 20260509224513 | 39 | 229 | 0.0 | 1.7 | 0.00 | 0.00 | 0.00 | 84 | 1018.6 |
| 20260509223017 | 39 | 254 | 0.0 | 0.9 | 0.00 | 0.00 | 0.00 | 84 | 1018.8 |
| 20260509221508 | 40 | 254 | 0.0 | 0.0 | 0.00 | 0.00 | 0.00 | 84 | 1018.7 |
| 20260509220006 | 41 | 254 | 0.0 | 0.9 | 0.00 | 0.00 | 0.00 | 83 | 1019.0 |
| 20260509214504 | 41 | 254 | 0.0 | 1.7 | 0.00 | 0.00 | 0.00 | 82 | 1019.1 |
| 20260509213003 | 41 | 270 | 0.0 | 1.7 | 0.00 | 0.00 | 0.00 | 82 | 1019.1 |
| 20260509211504 | 42 | 270 | 0.0 | 0.0 | 0.00 | 0.00 | 0.00 | 79 | 1019.2 |
| 20260509210002 | 42 | 270 | 0.0 | 0.0 | 0.00 | 0.00 | 0.00 | 79 | 1019.1 |
| 20260509204501 | 43 | 270 | 0.0 | 0.0 | 0.00 | 0.00 | 0.00 | 78 | 1019.2 |
| 20260509203100 | 44 | 270 | 0.0 | 0.0 | 0.00 | 0.00 | 0.00 | 77 | 1019.2 |
| 20260509201600 | 44 | 270 | 0.0 | 0.0 | 0.00 | 0.00 | 0.00 | 76 | 1019.2 |
| 20260509200100 | 45 | 270 | 0.0 | 0.0 | 0.00 | 0.00 | 0.00 | 76 | 1019.2 |
| 20260509194559 | 46 | 270 | 0.0 | 0.0 | 0.00 | 0.00 | 0.00 | 73 | 1019.3 |
| 20260509193058 | 47 | 270 | 0.0 | 0.0 | 0.00 | 0.00 | 0.00 | 71 | 1019.3 |
| 20260509191557 | 48 | 270 | 0.0 | 0.0 | 0.00 | 0.00 | 0.00 | 70 | 1019.4 |
| 20260509190057 | 49 | 270 | 0.0 | 0.0 | 0.00 | 0.00 | 0.00 | 68 | 1019.4 |
| 20260509184556 | 51 | 326 | 0.0 | 1.7 | 0.00 | 0.00 | 0.00 | 64 | 1019.5 |
| 20260509183055 | 52 | 326 | 0.0 | 0.9 | 0.00 | 0.00 | 0.00 | 61 | 1019.7 |
| 20260509181555 | 52 | 265 | 0.0 | 2.6 | 0.00 | 0.00 | 0.00 | 60 | 1019.6 |
| 20260509180055 | 53 | 342 | 0.0 | 2.6 | 0.00 | 0.00 | 0.00 | 55 | 1019.6 |
| 20260509174553 | 54 | 344 | 0.0 | 3.5 | 0.00 | 0.00 | 0.00 | 48 | 1019.7 |
| 20260509173116 | 55 | 251 | 0.9 | 2.6 | 0.00 | 0.00 | 0.00 | 47 | 1019.8 |
| 20260509171550 | 56 | 278 | 0.0 | 4.3 | 0.00 | 0.00 | 0.00 | 49 | 1019.9 |
| 20260509170056 | 56 | 347 | 0.9 | 3.5 | 0.00 | 0.00 | 0.00 | 48 | 1019.9 |
| 20260509164556 | 57 | 250 | 0.9 | 5.2 | 0.00 | 0.00 | 0.00 | 50 | 1020.1 |
| 20260509163048 | 57 | 334 | 0.9 | 4.3 | 0.00 | 0.00 | 0.00 | 53 | 1020.3 |
| 20260509161545 | 57 | 247 | 1.7 | 7.8 | 0.00 | 0.00 | 0.00 | 49 | 1020.5 |
| 20260509160047 | 58 | 294 | 0.9 | 5.2 | 0.00 | 0.00 | 0.00 | 45 | 1020.6 |
| 20260509154543 | 59 | 284 | 0.9 | 4.3 | 0.00 | 0.00 | 0.00 | 46 | 1020.7 |
| 20260509153042 | 59 | 327 | 2.6 | 7.0 | 0.00 | 0.00 | 0.00 | 42 | 1020.9 |
| 20260509151553 | 60 | 289 | 0.9 | 5.2 | 0.00 | 0.00 | 0.00 | 45 | 1021.0 |
| 20260509150045 | 59 | 283 | 0.9 | 6.1 | 0.00 | 0.00 | 0.00 | 44 | 1021.1 |
| 20260509144539 | 59 | 256 | 3.5 | 7.8 | 0.00 | 0.00 | 0.00 | 44 | 1021.3 |
| 20260509143044 | 59 | 274 | 1.7 | 7.0 | 0.00 | 0.00 | 0.00 | 43 | 1021.3 |
| 20260509141536 | 61 | 263 | 3.5 | 8.7 | 0.00 | 0.00 | 0.00 | 46 | 1021.5 |
| 20260509140035 | 60 | 206 | 7.0 | 12.2 | 0.00 | 0.00 | 0.00 | 43 | 1021.7 |
| 20260509134536 | 60 | 215 | 3.5 | 9.6 | 0.00 | 0.00 | 0.00 | 41 | 1021.8 |
| 20260509133033 | 60 | 261 | 3.5 | 13.0 | 0.00 | 0.00 | 0.00 | 42 | 1022.5 |
| 20260509131541 | 60 | 236 | 7.0 | 13.0 | 0.00 | 0.00 | 0.00 | 38 | 1022.1 |
| 20260509130053 | 60 | 205 | 6.1 | 12.2 | 0.00 | 0.00 | 0.00 | 39 | 1022.3 |
| 20260509124533 | 60 | 250 | 6.1 | 12.2 | 0.00 | 0.00 | 0.00 | 40 | 1022.4 |
| 20260509123044 | 60 | 257 | 6.1 | 10.4 | 0.00 | 0.00 | 0.00 | 39 | 1022.6 |
| 20260509121527 | 60 | 257 | 7.0 | 13.0 | 0.00 | 0.00 | 0.00 | 39 | 1022.8 |
| 20260509120031 | 60 | 246 | 2.6 | 7.8 | 0.00 | 0.00 | 0.00 | 37 | 1022.7 |
| 20260509114526 | 61 | 287 | 1.7 | 7.8 | 0.00 | 0.00 | 0.00 | 38 | 1022.8 |
| 20260509113023 | 61 | 343 | 1.7 | 8.7 | 0.00 | 0.00 | 0.00 | 41 | 1022.9 |
| 20260509111522 | 61 | 279 | 2.6 | 9.6 | 0.00 | 0.00 | 0.00 | 38 | 1023.1 |
| 20260509110026 | 61 | 284 | 0.9 | 7.8 | 0.00 | 0.00 | 0.00 | 40 | 1023.1 |
| 20260509104519 | 61 | 269 | 1.7 | 6.1 | 0.00 | 0.00 | 0.00 | 41 | 1023.2 |
| 20260509103016 | 59 | 229 | 4.3 | 9.6 | 0.00 | 0.00 | 0.00 | 40 | 1023.4 |
| 20260509101519 | 59 | 71 | 3.5 | 8.7 | 0.00 | 0.00 | 0.00 | 44 | 1023.7 |
| 20260509100011 | 60 | 295 | 1.7 | 7.0 | 0.00 | 0.00 | 0.00 | 48 | 1023.8 |
| 20260509094513 | 60 | 215 | 0.9 | 6.1 | 0.00 | 0.00 | 0.00 | 47 | 1023.9 |
| 20260509093008 | 59 | 325 | 2.6 | 7.0 | 0.00 | 0.00 | 0.00 | 49 | 1023.9 |
| 20260509091506 | 58 | 261 | 1.7 | 7.8 | 0.00 | 0.00 | 0.00 | 51 | 1024.0 |
| 20260509090002 | 57 | 350 | 1.7 | 7.0 | 0.00 | 0.00 | 0.00 | 54 | 1024.0 |
| 20260509084502 | 57 | 298 | 0.9 | 3.5 | 0.00 | 0.00 | 0.00 | 56 | 1024.0 |
| 20260509083057 | 56 | 344 | 0.9 | 4.3 | 0.00 | 0.00 | 0.00 | 58 | 1024.0 |
| 20260509081559 | 56 | 36 | 0.0 | 4.3 | 0.00 | 0.00 | 0.00 | 63 | 1024.1 |